COSMOS 2513

Last updated on Sun Apr 12 2026 00:02:54 GMT+0000 (Coordinated Universal Time)

1 41121U 15075A 26100.82354826 -.00000137 00000+0 00000+0 0 9994 2 41121 0.0548 95.0989 0002894 301.6544 179.0231 1.00271546 37878
UTC large
Height (km)
Speed (km/s)
/
Latitude / Longitude
Inclination (degrees)
Orbital Period (minutes)
Azimuth
Elevation
Range (km)
Doppler Factor

Next 0 passes for location: London (51.5072 / 0.1276)

Sorry there are no passes over London.
COSMOS 2513